Other Public Products
Issued by NWS Grand Forks, ND

Home | Current Version | Previous Version | Graphics & Text | Print | Product List | Glossary On
Versions: 1 2 3 4 5 6 7 8 9 10 11 12 13 14 15 16 17 18 19 20 21 22 23 24 25 26 27 28 29 30 31 32 33 34 35 36 37 38 39 40 41 42 43 44 45 46 47 48 49 50
280
FPUS83 KFGF 141131
OPUFGF
PRAIRIE TO PINES WEATHER ROUNDUP
NATIONAL WEATHER SERVICE EASTERN NORTH DAKOTA/GRAND FORKS ND
500 AM CST SUN FEB 14 2016

 **SATELLITE DATA USED TO AUGMENT SKY COVER AT AUTOMATED STATIONS**
 *****  WEATHER ACROSS EASTERN NORTH DAKOTA  *****

CITY           SKY/WX    TMP DP  RH WIND       PRES   REMARKS
GRAND FORKS    MIX PCPN  14   8  77 S20       29.91F WCI  -3
GRAND FORKS AF CLOUDY    12   7  79 S21G28    29.87F WCI  -6
GRAND CITY NWS NOT AVBL
BUXTON           N/A     12  11  97 S22         N/A  WCI  -7
DEVILS LAKE    FLURRIES  14  10  84 S16       29.77F WCI  -2
FARGO          LGT SNOW  14   8  77 S21G32    29.94F WCI  -4
WAHPETON ARPT  CLOUDY    12   9  85 SE18      29.95F WCI  -5
$$

 *****  WEATHER ACROSS CENTRAL AND WESTERN NORTH DAKOTA  *****

CITY           SKY/WX    TMP DP  RH WIND       PRES   REMARKS
JAMESTOWN      LGT SNOW  13  10  88 S17       29.79S FOG     WCI  -4
BISMARCK       CLOUDY    23  20  88 CALM      29.77F FOG
MINOT          CLOUDY    24  18  77 NW9       29.72S HAZE    WCI  14
MINOT AFB      CLOUDY    21  21 100 CALM      29.71S
GARRISON         N/A     26  23  88 NW18      29.73S WCI  13
WILLISTON      CLOUDY    33  29  85 W9        29.76F
DICKINSON      PTCLDY    31  28  89 W16       29.73F WCI  20
HETTINGER      CLEAR     30  27  88 W10       29.78F WCI  21
$$

 *****  OTHER OBSERVATIONS NORTHEAST NORTH DAKOTA  *****

CITY           SKY/WX    TMP DP  RH WIND       PRES   REMARKS
WALHALLA         N/A     12  10  92 S15       29.84F WCI  -4
LANGDON        NOT AVBL
CAVALIER       NOT AVBL
GRAFTON        NOT AVBL
CANDO          LGT SNOW  14  12  92 S16       29.77F WCI  -2
FORT TOTTEN      N/A     13  10  87 S14       29.95  WCI  -2
ROLLA          LGT SNOW  10   9  92 S7        29.72F WCI   0
RUGBY          NOT AVBL
 ***** THE ABOVE OBSERVATIONS ARE NON NWS ARE NOT QUALITY
        CONTROLLED AND MAY MIS-REPORT RAIN FOR SNOW...
$$

 *****  OTHER OBSERVATIONS SOUTHEAST NORTH DAKOTA *****

CITY           SKY/WX    TMP DP  RH WIND       PRES   REMARKS
COOPERSTOWN    NOT AVBL
VALLEY CITY    NOT AVBL
OAKES          CLOUDY    14  12  92 S12       29.85F FOG     WCI   0
GWINNER        CLOUDY    16  14  93 S14       29.87F WCI   1
SHEYENNE NWR     N/A     12   8  83 S13       29.95  WCI  -3
BUFFALO          N/A     12   8  83 SE20        N/A  WCI  -6
WYNDMERE         N/A     12   9  85 SE17        N/A  WCI  -5
 ***** THE ABOVE OBSERVATIONS ARE NON NWS ARE NOT QUALITY
       CONTROLLED AND MAY MIS-REPORT RAIN FOR SNOW...
$$

  *****  WEATHER ACROSS NORTHERN MINNESOTA  *****

CITY           SKY/WX    TMP DP  RH WIND       PRES   REMARKS
FLAG ISLAND    CLOUDY     5  -2  72 S21       29.95F WCI -16
WARROAD        CLOUDY     9   0  66 S10       29.94F WCI  -6
ROSEAU         FLURRIES  12   3  67 S15       29.93F WCI  -4
HALLOCK        LGT SNOW  12   9  85 S21       29.89F WCI  -6
THF RVR FALLS  CLOUDY    12   3  67 S20G26    29.93F WCI  -6
HALSTAD          N/A     13  10  87 S21         N/A  WCI  -5
FOSSTON        CLOUDY     9   1  72 SE9       29.94S WCI  -5
BAUDETTE       CLOUDY     5  -8  55 SE12      29.97F WCI -11
WASKISH        CLOUDY     9  -4  56 SE9       29.98F WCI  -5
CROOKSTON      LGT SNOW  12   9  85 S18       29.94F WCI  -5
$$
  *****  WEATHER ACROSS CENTRAL AND WEST MINNESOTA  *****

CITY           SKY/WX    TMP DP  RH WIND       PRES   REMARKS
BEMIDJI        LGT SNOW   6  -1  71 SE13      29.96F WCI -10
PARK RAPIDS    CLOUDY     9  -1  64 SE15      29.97F WCI  -8
WADENA         FLURRIES   9   1  72 SE12G17   29.97F WCI  -6
DETROIT LAKES  FLURRIES  12   5  73 SE14      29.95S WCI  -3
MOORHEAD       MIX PCPN  12   9  85 S18G25    29.94F WCI  -5
FERGUS FALLS   LGT SNOW  10   7  85 SE13      30.00S WCI  -5
ELBOW LAKE     LGT SNOW  11   8  87 E16G28    29.96S WCI  -5
MORRIS MN      CLOUDY    12   9  85 SE21      29.95F FOG     WCI  -6
STAPLES        CLOUDY     9   0  66 SE10G16   29.99F WCI  -6
WHEATON        LGT SNOW  14  10  85 SE17      29.96F WCI  -3
$$
  *****  WEATHER ELSEWHERE ACROSS MINNESOTA  *****

CITY           SKY/WX    TMP DP  RH WIND       PRES   REMARKS
DULUTH         PTCLDY     0 -13  54 SE9       30.12F WCI -15
INTRNTL FALLS  CLOUDY    -1 -14  53 SE8       30.04F WCI -15
ELY            CLOUDY   -22 -27  76 CALM      30.12F
CLOQUET        CLOUDY    -2 -15  55 E5        30.11F WCI -12
BRAINERD       LGT SNOW   6  -2  69 SE7       30.03F WCI  -6
HIBBING        CLOUDY    -6 -14  68 SE6       30.09F WCI -19
ALEXANDRIA     LGT SNOW   9   4  80 SE14      29.97F WCI  -7
SAINT CLOUD    CLOUDY    10  -1  61 SE12      30.07F WCI  -5
MINNEAPOLIS    CLOUDY    10  -2  58 E16       30.12F WCI  -7
$$

  *****  WEATHER ACROSS SOUTH DAKOTA  *****

CITY           SKY/WX    TMP DP  RH WIND       PRES   REMARKS
SIOUX FALLS    LGT SNOW  14  10  84 SE12      29.89F FOG     WCI   0
BROOKINGS      LGT SNOW  10   9  92 SE16      29.87F FOG     WCI  -7
WATERTOWN      LGT SNOW  12   7  80 S16       29.84F WCI  -5
HURON          LGT SNOW  15  11  83 S10       29.86F FOG     WCI   2
SISSETON         N/A     13  10  88 S14       29.91F WCI  -2
ABERDEEN       CLOUDY    16  11  80 S14G24    29.86R WCI   2
MITCHELL       CLOUDY    16  12  84 SE12      29.86F WCI   3
PIERRE         CLOUDY    24  23  96 SW5       29.80R WCI  18
MOBRIDGE       LGT SNOW  22  20  92 SE3       29.75F FOG
RAPID CITY     CLEAR     28  23  81 W7        29.85F WCI  21
$$

  *****  SOME WEATHER IN NEARBY STATES *****

CITY           SKY/WX    TMP DP  RH WIND       PRES   REMARKS
GLASGOW MT     MOCLDY    30  25  81 W6        29.77F WCI  24
GREAT FALLS MT MOCLDY    36  24  62 SW22      29.79F
CHEYENNE WY    PTCLDY    37  13  37 NW7       29.93F
SCOTTSBLUFF NE PTCLDY    26  21  81 CALM      29.95F
OMAHA NE       CLOUDY    21   8  57 S21       29.96F WCI   5
DES MOINES IA  FLURRIES  17   9  70 SE14      30.08F WCI   3
DAVENPORT IA   FLURRIES  17   6  62 SE17      30.25F WCI   1
CHICAGO IL     CLOUDY    13   3  64 S8        30.39F WCI   2
EAU CLAIRE WI  CLOUDY     2 -11  54 SE8       30.23F WCI -12
LA CROSSE WI   CLOUDY    10  -3  55 E7        30.25F WCI  -1
$$

  *****  SOME NATIONAL WEATHER *****

CITY           SKY/WX    TMP DP  RH WIND       PRES   REMARKS
LA GUARDIA NY  PTCLDY     3 -11  52 NW22G36   30.44R WCI -19
RALEIGH NC     PTCLDY    15   0  51 NE5       30.51R WCI   8
ATLANTA GA     CLOUDY    29   8  41 E12       30.33R WCI  19
NEW ORLEANS LA CLOUDY    48  39  71 E3        30.21F
OKLAHOMA CITY  CLOUDY    46  42  86 S9        29.88R
ALBUQUERQUE NM MOCLDY    44  15  31 NW3       30.11S
SALT LAKE CITY FOG       29  27  92 CALM      30.22F VSB 1/4
LOS ANGELES CA FOG       51  50  96 CALM      30.05F VSB 1/4
BOISE ID       LGT RAIN  40  37  89 SE5       30.21R
SEATTLE WA     LGT RAIN  48  46  93 S13       30.13S FOG
$$

*** WEATHER ACROSS MANITOBA...SASKATCHEWAN AND ONTARIO ***
                ***ONTARIO***

CITY           SKY/WX    TMP DP  RH WIND       PRES   REMARKS
GERALDTON      CLEAR    -31 -38  68 CALM      30.24F
THUNDER BAY    FLURRIES -11 -17  77 W3        30.29F
SIOUX LOOKOUT  CLEAR     -9 -15  77 S7        30.06F WCI -24
TORONTO        CLEAR    -11 -22  58 N7        30.52S WCI -26
BIG TROUT LK   PTCLDY    -4 -11  71 S10       30.02F WCI -21
PICKLE LAKE    CLEAR    -13 -20  70 SE5       30.08  WCI -25
DRYDEN         CLEAR     -6 -15  65 S14       30.01F WCI -26
KENORA         FLURRIES   1  -9  60 S16       29.94F WCI -18
$$
                *** MANITOBA***

CITY           SKY/WX    TMP DP  RH WIND       PRES   REMARKS
BRANDON        FLURRIES  10   9  92 SE5       29.75F WCI   2
DAUPHIN        CLOUDY    10   7  85 SE2       29.75F
ISLAND LAKE    CLOUDY     1  -8  66 S9        29.84F WCI -14
PILOT MOUND      N/A     10   9  92 S15         N/A  WCI  -6
THE PAS        FLURRIES   9   3  78 S9        29.66F WCI  -5
THOMPSON       LGT SNOW   3  -2  78 S10       29.67F WCI -12
WINNIPEG       CLOUDY    12   5  73 S21G28    29.88F WCI  -6
LYNN LAKE      FLURRIES   7   5  92 S8        29.48F WCI  -6
CHURCHILL      FLURRIES   5  -4  66 S12G17    29.68F WCI -11
$$
                ***SASKATCHEWAN***

CITY           SKY/WX    TMP DP  RH WIND       PRES   REMARKS
ESTEVAN        NOT AVBL
KINDERSLEY     CLEAR     12  10  92 S7        29.65F WCI   2
LLOYDMINSTER   MOCLDY    28  23  80 W3        29.61F
PRINCE ALBERT  FOG       19  18  93 SW7       29.63F VSB 5/8 WCI  10
REGINA         FOG       25  25 100 W13       29.70F VSB 3/8 WCI  13
YORKTON        CLOUDY    16  14  93 S8        29.67F WCI   5
N. BATTLEFORD  CLOUDY    18  18 100 N2        29.65F   C1F1C2F2C3F3C4F4C5F5C6F6C7F7C8F8C9F9CaFaCbFbCcFcCdFdCe!



USA.gov is the U.S. government's official web portal to all federal, state and local government web resources and services.